Location: Garbet
(42.8837°N, 1.2115°E)
Time: 23:25:45
(UTC+00:00)

Cosmos 1354 Rocket - Pass Details

Date: 13 December 2025
Orbit: 761 x 778 km, 74.0° (Epoch: 19 January)

Event Time Altitude Azimuth Distance (km) Brightness Sun altitude
Rises 16:56:39 0° 197° (SSW) 3,232 7.9 -6.5°
Reaches altitude 10° 16:59:01 10° 197° (SSW) 2,307 7.1 -6.9°
Maximum altitude 17:04:16 86° 110° (ESE) 776 4.0 -7.8°
Drops below altitude 10° 17:09:32 10° 21° (NNE) 2,312 6.1 -8.7°
Enters shadow 17:11:46 - 21° (NNE) 3,183 6.8 -9.1°
